Flag for Austria Weather past 2 weeks in Hartberg, Styria, Austria

Now
66 °F

Broken clouds.


Feels Like: 66 °F
Forecast: 50 / 68 °F
Wind: 5 mph from Southeast

Location: Graz-Thalerhof-Flughafen

Current Time: Aug 22, 2014 at 4:53:42 PM

Latest Report: Aug 22, 2014 at 4:20 PM


Visibility: N/A

Pressure: 30.01 "Hg

Humidity: 68%

Dew point: 55 °F

Location of HartbergLocation

Historic Weather in Hartberg — Graph

°F

Hartberg temperature yesterday

Maximum temperature yesterday: 70 °F (at 1:20 PM)
Minimum temperature yesterday: 55 °F (at 3:50 AM)
Average temperature yesterday: 63 °F

Past Weeks' High & Low Weather Summary

 TemperatureHumidityPressure
High84 °F (Aug 9, 2:50 PM)100% (Aug 8, 1:50 AM)30.09 "Hg (Aug 8, 1:50 AM)
Low48 °F (Aug 16, 4:50 AM)37% (Aug 8, 5:50 PM)29.71 "Hg (Aug 13, 8:20 PM)
Average64 °F80%29.97 "Hg
* Reported Aug 7 3:20 PM — Aug 22 3:50 PM, Hartberg, Weather by CustomWeather, © 2014

Note: Actual official high and low records may vary slightly from our data, if they occured in-between our weather recording intervals... More about our weather records

Advertising

Hartberg weather history for previous 24 hours

 ConditionsComfort  
Time TempWeatherWind HumidityBarometerVisibility
3:50 PM
Aug 22
68 °FScattered clouds.6 mph69%30.01 "HgN/A
3:20 PM66 °FBroken clouds.7 mph68%30.04 "HgN/A
2:50 PM66 °FBroken clouds.6 mph64%30.04 "HgN/A
2:20 PM68 °FPartly sunny.6 mph60%30.04 "HgN/A
1:50 PM66 °FPartly sunny.6 mph73%30.04 "HgN/A
1:20 PM66 °FPartly sunny.6 mph68%30.04 "HgN/A
12:50 PM64 °FPartly sunny.5 mph73%30.04 "HgN/A
12:20 PM64 °FPartly sunny.6 mph68%30.07 "HgN/A
11:50 AM64 °FPartly sunny.7 mph73%30.04 "HgN/A
11:20 AM64 °FPartly sunny.7 mph68%30.07 "HgN/A
10:50 AM64 °FPartly sunny.7 mph68%30.07 "HgN/A
10:20 AM64 °FPartly sunny.6 mph73%30.07 "HgN/A
9:50 AM64 °FScattered clouds.3 mph73%30.07 "HgN/A
9:20 AM63 °FPartly sunny.2 mph77%30.07 "HgN/A
8:50 AM61 °FPartly sunny.1 mph83%30.07 "HgN/A
8:20 AM59 °FPartly sunny.1 mph94%30.07 "HgN/A
7:50 AM59 °FScattered clouds.1 mph88%30.07 "HgN/A
7:20 AM55 °FSnow. Scattered clouds.1 mph100%30.07 "HgN/A
6:50 AM55 °FPassing clouds.1 mph100%30.07 "HgN/A
6:20 AM54 °FSnow. Passing clouds.1 mph100%30.04 "HgN/A
5:50 AM54 °FFog.1 mph100%30.04 "HgN/A
5:20 AM55 °FClear.1 mph94%30.04 "Hg10 mi
4:50 AM55 °FClear.1 mph100%30.04 "Hg10 mi
4:20 AM57 °FClear.1 mph94%30.07 "Hg10 mi
3:50 AM57 °FClear.1 mph94%30.07 "Hg10 mi
3:20 AM59 °FSprinkles. Passing clouds.1 mph88%30.07 "HgN/A
2:50 AM59 °FPassing clouds.1 mph88%30.07 "HgN/A
2:20 AM59 °FPassing clouds.1 mph88%30.07 "HgN/A
1:50 AM59 °FPassing clouds.1 mph94%30.07 "HgN/A
1:20 AM59 °FPartly cloudy.1 mph88%30.07 "HgN/A
12:50 AM61 °FPassing clouds.1 mph83%30.07 "HgN/A
12:20 AM61 °FOvercast.5 mph83%30.07 "HgN/A
11:50 PM
Aug 21
61 °FPassing clouds.3 mph83%30.07 "HgN/A
11:20 PM61 °FPassing clouds.2 mph83%30.07 "HgN/A
10:50 PM61 °FPassing clouds.3 mph83%30.07 "HgN/A
10:20 PM61 °FPassing clouds.3 mph83%30.07 "HgN/A
9:50 PM61 °FPassing clouds.2 mph77%30.07 "HgN/A
9:20 PM63 °FPassing clouds.5 mph73%30.07 "HgN/A
8:50 PM63 °FPartly sunny.3 mph77%30.04 "HgN/A
8:20 PM63 °FPartly sunny.3 mph77%30.04 "HgN/A
7:50 PM64 °FPartly sunny.6 mph68%30.04 "HgN/A
7:20 PM66 °FPartly sunny.7 mph64%30.04 "HgN/A
6:50 PM68 °FPartly sunny.5 mph60%30.01 "HgN/A
6:20 PM68 °FPartly sunny.5 mph60%30.01 "HgN/A
5:50 PM68 °FScattered clouds.5 mph60%30.01 "HgN/A
5:20 PM68 °FScattered clouds.3 mph60%30.01 "HgN/A
4:50 PM68 °FScattered clouds.5 mph56%30.01 "HgN/A
4:20 PM70 °FScattered clouds.7 mph53%30.01 "HgN/A
Weather by CustomWeather, © 2014

See weather overviewHow to use our weather pages